This demonstration page uses our WeatherBlox Daily Observations layout. Learn more.

Left ArrowRight Arrow

41.86663, -103.66717

Hourly Observations for June 11, 2021

Temp ( °F °C ) Dew Point ( °F °C ) Humidity (%) Winds ( mph kmh ) Pressure ( in mb ) Visibility ( mi km ) Precip ( " mm )
12:53 am 00:53 Clear 71 21.7 32 undefined 24 24 NW 20 31 29.73 1007 10 16 N/A
1:53 am 01:53 Clear 66 18.9 24 -4.4 20 20 NW 16 26 29.78 1008 10 16 N/A
3:53 am 03:53 Clear 62 16.7 15 -9.4 16 16 NW 25 41 29.80 1009 10 16 N/A
4:53 am 04:53 Clear 59 15 20 -6.7 22 22 NW 17 28 29.84 1011 10 16 N/A
5:53 am 05:53 Sunny 57 13.9 24 -4.4 28 28 NW 16 26 29.88 1012 10 16 N/A
6:53 am 06:53 Sunny 60 15.6 26 -3.3 27 27 WNW 21 33 29.90 1013 10 16 N/A
7:53 am 07:53 Sunny 63 17.2 26 -3.3 25 25 NW 22 35 29.93 1014 10 16 N/A
8:53 am 08:53 Sunny 66 18.9 28 -2.2 24 24 NW 17 28 29.96 1014 10 16 N/A
9:53 am 09:53 Sunny 69 20.6 28 -2.2 22 22 WNW 12 19 29.96 1015 10 16 N/A
10:53 am 10:53 Sunny 73 22.8 29 -1.7 19 19 NW 12 19 29.96 1015 10 16 N/A
11:53 am 11:53 Sunny 74 23.3 27 -2.8 17 17 NNW 10 17 29.97 1015 10 16 N/A
12:53 pm 12:53 Sunny 77 25 27 -2.8 16 16 NNW 14 22 29.95 1014 10 16 N/A
1:53 pm 13:53 Sunny 80 26.7 25 -3.9 13 13 N 10 17 29.95 1014 10 16 N/A
2:53 pm 14:53 Sunny 81 27.2 25 -3.9 13 13 W 7 11 29.94 1014 10 16 N/A
3:53 pm 15:53 Sunny 80 26.7 25 -3.9 13 13 VRB 5 7 29.93 1014 10 16 N/A
4:53 pm 16:53 Sunny 81 27.2 26 -3.3 13 13 VRB 6 9 29.93 1014 10 16 N/A
5:53 pm 17:53 Sunny 79 26.1 28 -2.2 15 15 ESE 6 9 29.92 1013 10 16 N/A
6:53 pm 18:53 Sunny 78 25.6 32 undefined 19 19 ESE 15 24 29.92 1013 10 16 N/A
7:53 pm 19:53 Sunny 75 23.9 34 1.1 22 22 SE 10 17 29.93 1014 10 16 N/A
8:53 pm 20:53 Clear 68 20 36 2.2 31 31 ESE 9 15 29.96 1015 10 16 N/A
9:53 pm 21:53 Clear 63 17.2 38 3.3 40 40 E 8 13 29.99 1016 10 16 N/A
10:53 pm 22:53 Clear 59 15 37 2.8 44 44 ESE 7 11 29.99 1016 10 16 N/A
11:53 pm 23:53 Clear 60 15.6 37 2.8 42 42 E 9 15 29.98 1015 10 16 N/A

Powered by AerisWeather